STARLINK-32893 (62897 NORAD) Tracking and Keplerian Element Data

This shows tracking and keplerian element data for the satellite.

Feedback or suggestion? Click here.




ElementValue
Catalog62897
NameSTARLINK-32893
Epoch Orbit5011
Epoch Day354.20397534
Epoch Year2025
RAAN53.9127
Inclination42.9984
Eccentricity6.56E-05
Argument of Perigee302.8666
Mean Anonmoly57.2122
Mean Motion15.27568891
Decay Rate0.00022254
L11 62897U 25024U 25354.20397534 .00022254 00000+0 81604-3 0 9993
L22 62897 42.9984 53.9127 0000656 302.8666 57.2122 15.27568891 50113



Live tracking and technical data element details for STARLINK-32893 (NORAD 62897). STARLINK-32893 can be tracked NOW for your location showing map with azimuth and elevation plus other details from your city location.







IsCatalogInMostPopularTable: catalog: 62897, numindb: 2
Update: records affected: 1



GetName: 62897 STARLINK-32893

Hit Count: updated at: Sun, 08 Feb 2026 07:22:32 GMT